QPF
0.00 0.00 0.00 0.00 0.01 0.01 0.01 0.01 0.00 0.00 0.00 0.00 0.00 0.00 0.00 0.00 0.02 0.04 0.02 0.01 0.04 0.10 0.06 0.02 0.01 0.01 0.02 0.02 0.01 0.01 0.01 0.02 0.02 0.02 0.02 0.04 0.05 0.06 0.07 0.06 0.06 0.04 0.07 0.08 0.12 0.13 0.10 0.09 0.08
0.00 0.00 0.00 0.00 0.01 0.02 0.01 0.00 0.00 0.00 0.00 0.00 0.00 0.00 0.00 0.01 0.01 0.01 0.01 0.00 0.01 0.06 0.06 0.02 0.01 0.01 0.02 0.02 0.02 0.03 0.02 0.02 0.01 0.01 0.02 0.03 0.03 0.04 0.06 0.08 0.09 0.07 0.11 0.11 0.13 0.15 0.12 0.12 0.11
0.00 0.00 0.00 0.00 0.00 0.01 0.01 0.00 0.01 0.00 0.00 0.00 0.00 0.00 0.00 0.00 0.00 0.00 0.01 0.00 0.01 0.02 0.02 0.01 0.01 0.02 0.02 0.02 0.02 0.04 0.04 0.04 0.02 0.01 0.02 0.02 0.02 0.02 0.03 0.06 0.09 0.08 0.08 0.10 0.10 0.12 0.15 0.13 0.10
0.00 0.00 0.00 0.00 0.00 0.00 0.01 0.01 0.01 0.00 0.00 0.00 0.00 0.00 0.00 0.00 0.00 0.00 0.00 0.01 0.01 0.02 0.01 0.01 0.01 0.01 0.02 0.02 0.03 0.02 0.03 0.03 0.02 0.02 0.02 0.02 0.02 0.02 0.04 0.05 0.05 0.05 0.05 0.05 0.07 0.09 0.11 0.12 0.11
0.00 0.00 0.00 0.00 0.00 0.01 0.00 0.01 0.01 0.00 0.00 0.00 0.00 0.00 0.00 0.00 0.00 0.00 0.00 0.00 0.01 0.01 0.02 0.02 0.01 0.01 0.02 0.03 0.03 0.03 0.03 0.03 0.04 0.03 0.02 0.02 0.03 0.03 0.03 0.05 0.04 0.04 0.04 0.05 0.05 0.06 0.09 0.14 0.13
0.00 0.00 0.00 0.00 0.01 0.01 0.00 0.00 0.01 0.01 0.00 0.00 0.00 0.00 0.00 0.00 0.00 0.00 0.00 0.01 0.01 0.01 0.03 0.04 0.03 0.02 0.02 0.03 0.03 0.04 0.04 0.03 0.03 0.05 0.03 0.02 0.03 0.04 0.04 0.04 0.04 0.05 0.05 0.05 0.05 0.04 0.08 0.13 0.10
0.00 0.00 0.00 0.00 0.00 0.00 0.00 0.00 0.00 0.00 0.00 0.00 0.00 0.00 0.00 0.00 0.00 0.00 0.00 0.01 0.03 0.02 0.03 0.05 0.05 0.04 0.03 0.04 0.03 0.03 0.04 0.03 0.04 0.07 0.05 0.03 0.03 0.04 0.05 0.06 0.06 0.08 0.05 0.05 0.04 0.05 0.06 0.06 0.05
0.00 0.00 0.00 0.00 0.01 0.01 0.00 0.00 0.00 0.00 0.00 0.00 0.00 0.00 0.00 0.00 0.00 0.00 0.02 0.03 0.03 0.03 0.03 0.04 0.06 0.05 0.03 0.03 0.03 0.03 0.03 0.03 0.03 0.04 0.04 0.03 0.04 0.04 0.06 0.07 0.08 0.10 0.06 0.05 0.04 0.04 0.04 0.03 0.03
0.00 0.00 0.00 0.00 0.01 0.02 0.01 0.00 0.00 0.00 0.00 0.00 0.00 0.00 0.01 0.00 0.00 0.01 0.02 0.04 0.03 0.04 0.04 0.04 0.05 0.05 0.03 0.02 0.02 0.03 0.04 0.04 0.04 0.04 0.05 0.06 0.07 0.06 0.06 0.06 0.10 0.09 0.10 0.09 0.06 0.03 0.03 0.03 0.03
0.00 0.00 0.00 0.00 0.00 0.01 0.02 0.01 0.01 0.01 0.00 0.00 0.00 0.00 0.00 0.00 0.00 0.01 0.02 0.04 0.03 0.05 0.06 0.05 0.03 0.05 0.04 0.02 0.02 0.03 0.04 0.06 0.07 0.07 0.07 0.08 0.07 0.08 0.07 0.07 0.10 0.12 0.10 0.10 0.08 0.06 0.05 0.06 0.03
0.00 0.00 0.00 0.00 0.00 0.01 0.02 0.03 0.01 0.01 0.01 0.02 0.01 0.00 0.00 0.00 0.00 0.01 0.02 0.03 0.03 0.05 0.06 0.05 0.05 0.04 0.04 0.03 0.02 0.02 0.04 0.07 0.09 0.08 0.08 0.11 0.09 0.09 0.10 0.08 0.08 0.10 0.12 0.12 0.08 0.08 0.11 0.09 0.05
0.00 0.00 0.00 0.01 0.01 0.01 0.01 0.04 0.03 0.01 0.01 0.02 0.02 0.02 0.03 0.01 0.01 0.01 0.01 0.02 0.05 0.05 0.05 0.04 0.06 0.06 0.05 0.03 0.02 0.02 0.03 0.04 0.08 0.12 0.12 0.13 0.14 0.09 0.09 0.09 0.08 0.09 0.11 0.15 0.12 0.09 0.10 0.09 0.06
0.00 0.00 0.00 0.00 0.00 0.00 0.01 0.01 0.02 0.01 0.00 0.01 0.01 0.02 0.03 0.01 0.00 0.01 0.01 0.02 0.04 0.03 0.03 0.03 0.05 0.05 0.05 0.04 0.03 0.03 0.04 0.04 0.06 0.10 0.12 0.14 0.17 0.11 0.08 0.09 0.10 0.10 0.10 0.11 0.14 0.11 0.09 0.08 0.06
0.00 0.00 0.00 0.00 0.00 0.00 0.00 0.00 0.00 0.00 0.00 0.00 0.00 0.02 0.03 0.01 0.01 0.01 0.02 0.02 0.03 0.04 0.02 0.02 0.03 0.03 0.04 0.04 0.03 0.03 0.04 0.04 0.05 0.07 0.11 0.10 0.12 0.12 0.08 0.08 0.10 0.14 0.12 0.11 0.13 0.16 0.11 0.07 0.05
0.00 0.00 0.00 0.00 0.00 0.00 0.00 0.00 0.00 0.01 0.01 0.01 0.01 0.02 0.01 0.02 0.02 0.03 0.03 0.02 0.03 0.04 0.03 0.02 0.01 0.02 0.02 0.02 0.02 0.03 0.04 0.04 0.04 0.06 0.13 0.11 0.10 0.09 0.07 0.06 0.07 0.12 0.13 0.12 0.11 0.14 0.14 0.09 0.05
0.00 0.00 0.01 0.01 0.00 0.00 0.01 0.00 0.00 0.00 0.01 0.01 0.01 0.01 0.01 0.01 0.01 0.02 0.02 0.02 0.02 0.02 0.02 0.04 0.02 0.02 0.02 0.02 0.04 0.05 0.04 0.04 0.04 0.05 0.09 0.14 0.12 0.09 0.06 0.04 0.06 0.10 0.12 0.12 0.09 0.08 0.12 0.15 0.09
0.02 0.01 0.01 0.01 0.00 0.00 0.01 0.01 0.01 0.01 0.01 0.01 0.01 0.02 0.01 0.01 0.02 0.02 0.02 0.01 0.01 0.01 0.02 0.02 0.03 0.03 0.02 0.03 0.06 0.07 0.05 0.05 0.05 0.05 0.05 0.09 0.12 0.09 0.06 0.05 0.06 0.08 0.09 0.09 0.08 0.09 0.09 0.12 0.11
0.02 0.02 0.01 0.01 0.01 0.00 0.00 0.01 0.01 0.01 0.01 0.01 0.00 0.01 0.01 0.01 0.01 0.01 0.01 0.01 0.01 0.02 0.03 0.03 0.02 0.02 0.03 0.04 0.07 0.09 0.09 0.08 0.07 0.06 0.05 0.04 0.06 0.08 0.08 0.05 0.06 0.06 0.08 0.07 0.07 0.09 0.10 0.09 0.09
0.01 0.03 0.03 0.01 0.00 0.01 0.01 0.01 0.01 0.01 0.00 0.00 0.01 0.01 0.01 0.01 0.01 0.01 0.01 0.01 0.02 0.04 0.04 0.03 0.03 0.02 0.03 0.03 0.04 0.07 0.10 0.12 0.10 0.07 0.06 0.05 0.05 0.08 0.10 0.08 0.08 0.07 0.08 0.06 0.05 0.06 0.07 0.08 0.06
0.01 0.02 0.03 0.03 0.01 0.01 0.02 0.01 0.00 0.01 0.01 0.00 0.01 0.01 0.01 0.01 0.01 0.01 0.01 0.01 0.02 0.03 0.03 0.03 0.03 0.03 0.02 0.02 0.02 0.03 0.06 0.11 0.11 0.06 0.06 0.05 0.05 0.07 0.09 0.10 0.09 0.08 0.08 0.07 0.06 0.06 0.06 0.05 0.05
0.00 0.01 0.01 0.01 0.02 0.01 0.01 0.01 0.01 0.00 0.01 0.01 0.00 0.00 0.01 0.01 0.01 0.02 0.02 0.02 0.01 0.02 0.02 0.03 0.03 0.03 0.03 0.03 0.02 0.04 0.06 0.08 0.12 0.10 0.06 0.05 0.05 0.06 0.08 0.10 0.11 0.10 0.08 0.06 0.06 0.06 0.05 0.04 0.03
0.00 0.01 0.01 0.01 0.02 0.02 0.01 0.02 0.02 0.01 0.00 0.01 0.01 0.00 0.00 0.01 0.03 0.05 0.04 0.02 0.02 0.01 0.02 0.04 0.04 0.03 0.03 0.03 0.03 0.03 0.03 0.06 0.07 0.07 0.05 0.04 0.03 0.03 0.03 0.05 0.06 0.09 0.09 0.07 0.06 0.06 0.04 0.04 0.04
0.00 0.01 0.02 0.01 0.01 0.01 0.01 0.02 0.03 0.02 0.01 0.00 0.00 0.00 0.01 0.03 0.05 0.05 0.05 0.02 0.02 0.01 0.02 0.04 0.03 0.03 0.04 0.04 0.04 0.04 0.04 0.04 0.05 0.06 0.06 0.05 0.04 0.03 0.02 0.02 0.04 0.05 0.07 0.07 0.07 0.06 0.06 0.04 0.03
0.00 0.00 0.02 0.02 0.01 0.03 0.02 0.02 0.04 0.02 0.01 0.01 0.01 0.01 0.02 0.02 0.03 0.03 0.02 0.03 0.01 0.02 0.02 0.02 0.02 0.02 0.03 0.03 0.03 0.04 0.03 0.03 0.05 0.06 0.08 0.09 0.07 0.04 0.03 0.03 0.03 0.04 0.05 0.06 0.06 0.05 0.05 0.05 0.03
0.01 0.01 0.03 0.04 0.03 0.03 0.03 0.03 0.03 0.02 0.01 0.03 0.03 0.02 0.01 0.01 0.01 0.02 0.02 0.04 0.02 0.02 0.03 0.03 0.02 0.02 0.02 0.02 0.03 0.05 0.04 0.04 0.05 0.08 0.09 0.08 0.05 0.03 0.02 0.02 0.02 0.03 0.03 0.04 0.06 0.06 0.05 0.05 0.05
0.01 0.01 0.03 0.05 0.04 0.03 0.03 0.04 0.04 0.06 0.04 0.05 0.06 0.08 0.03 0.02 0.02 0.01 0.01 0.02 0.03 0.02 0.04 0.04 0.02 0.02 0.02 0.02 0.04 0.07 0.07 0.06 0.06 0.07 0.06 0.06 0.05 0.04 0.04 0.03 0.03 0.03 0.03 0.02 0.04 0.05 0.04 0.04 0.04
0.01 0.01 0.02 0.03 0.02 0.03 0.03 0.04 0.04 0.05 0.05 0.03 0.03 0.06 0.06 0.04 0.03 0.03 0.04 0.04 0.04 0.03 0.03 0.03 0.03 0.03 0.03 0.03 0.04 0.06 0.06 0.07 0.06 0.06 0.06 0.06 0.06 0.05 0.05 0.05 0.06 0.05 0.05 0.03 0.03 0.03 0.04 0.05 0.05
0.00 0.01 0.02 0.03 0.03 0.05 0.06 0.09 0.09 0.05 0.04 0.02 0.01 0.01 0.03 0.05 0.04 0.04 0.05 0.07 0.07 0.04 0.04 0.05 0.05 0.04 0.05 0.05 0.05 0.05 0.05 0.05 0.06 0.06 0.05 0.05 0.06 0.06 0.06 0.06 0.07 0.07 0.07 0.06 0.05 0.03 0.04 0.05 0.06
0.01 0.01 0.03 0.03 0.02 0.04 0.07 0.12 0.10 0.05 0.03 0.03 0.02 0.01 0.02 0.04 0.05 0.05 0.06 0.07 0.06 0.05 0.05 0.05 0.06 0.07 0.07 0.05 0.05 0.05 0.06 0.06 0.06 0.06 0.05 0.05 0.06 0.06 0.06 0.06 0.07 0.08 0.08 0.09 0.08 0.06 0.06 0.06 0.07
0.02 0.03 0.03 0.04 0.05 0.06 0.08 0.09 0.05 0.04 0.04 0.03 0.04 0.04 0.03 0.02 0.02 0.02 0.03 0.05 0.05 0.05 0.06 0.07 0.08 0.09 0.10 0.09 0.08 0.07 0.07 0.07 0.06 0.05 0.06 0.06 0.06 0.06 0.06 0.06 0.05 0.06 0.07 0.09 0.09 0.09 0.07 0.08 0.08
MSLP
1005.17 1005.73 1006.45 1007.18 1007.81 1008.23 1008.41 1008.38 1008.21 1008.03 1007.94 1008.03 1008.30 1008.73 1009.24 1009.71 1010.07 1010.26 1010.28 1010.18 1010.02 1009.91 1009.88 1009.98 1010.17 1010.41 1010.63 1010.78 1010.84 1010.82 1010.78 1010.77 1010.85 1011.06 1011.39 1011.80 1012.24 1012.63 1012.91 1013.07 1013.11 1013.07 1013.00 1012.95 1012.95 1013.00 1013.08 1013.15 1013.18
1005.12 1005.74 1006.45 1007.12 1007.62 1007.90 1007.95 1007.82 1007.61 1007.44 1007.40 1007.57 1007.93 1008.44 1009.00 1009.50 1009.87 1010.06 1010.10 1010.02 1009.92 1009.86 1009.91 1010.06 1010.31 1010.57 1010.80 1010.94 1010.98 1010.94 1010.89 1010.88 1010.98 1011.22 1011.58 1012.01 1012.47 1012.86 1013.15 1013.31 1013.36 1013.33 1013.28 1013.24 1013.25 1013.30 1013.37 1013.42 1013.41
1005.22 1005.86 1006.51 1007.05 1007.38 1007.48 1007.36 1007.11 1006.85 1006.69 1006.72 1006.98 1007.44 1008.03 1008.65 1009.19 1009.58 1009.77 1009.82 1009.77 1009.71 1009.72 1009.83 1010.06 1010.37 1010.68 1010.94 1011.10 1011.15 1011.13 1011.09 1011.10 1011.22 1011.48 1011.85 1012.29 1012.73 1013.12 1013.40 1013.56 1013.61 1013.59 1013.56 1013.55 1013.57 1013.62 1013.67 1013.69 1013.64
1005.46 1006.07 1006.62 1006.99 1007.12 1007.01 1006.72 1006.36 1006.05 1005.90 1006.00 1006.36 1006.92 1007.60 1008.28 1008.85 1009.25 1009.46 1009.51 1009.49 1009.47 1009.54 1009.73 1010.04 1010.41 1010.79 1011.10 1011.30 1011.39 1011.40 1011.40 1011.44 1011.58 1011.85 1012.22 1012.64 1013.07 1013.42 1013.68 1013.82 1013.88 1013.88 1013.86 1013.87 1013.91 1013.95 1013.98 1013.96 1013.86
1005.77 1006.33 1006.74 1006.92 1006.85 1006.55 1006.11 1005.66 1005.32 1005.21 1005.39 1005.83 1006.49 1007.24 1007.97 1008.57 1008.98 1009.18 1009.25 1009.25 1009.28 1009.41 1009.67 1010.05 1010.49 1010.93 1011.29 1011.55 1011.69 1011.75 1011.79 1011.86 1012.03 1012.30 1012.66 1013.05 1013.44 1013.75 1013.97 1014.10 1014.14 1014.15 1014.16 1014.18 1014.22 1014.26 1014.27 1014.21 1014.08
1006.08 1006.54 1006.80 1006.81 1006.56 1006.12 1005.57 1005.07 1004.74 1004.69 1004.95 1005.49 1006.23 1007.04 1007.80 1008.41 1008.81 1009.02 1009.09 1009.12 1009.20 1009.38 1009.70 1010.14 1010.64 1011.12 1011.53 1011.83 1012.01 1012.12 1012.19 1012.30 1012.49 1012.76 1013.10 1013.46 1013.80 1014.07 1014.25 1014.34 1014.37 1014.38 1014.40 1014.44 1014.48 1014.52 1014.51 1014.43 1014.28
1006.28 1006.63 1006.75 1006.61 1006.23 1005.69 1005.11 1004.62 1004.35 1004.39 1004.74 1005.37 1006.17 1007.01 1007.78 1008.38 1008.78 1008.99 1009.07 1009.13 1009.25 1009.48 1009.85 1010.32 1010.85 1011.36 1011.78 1012.10 1012.30 1012.43 1012.53 1012.67 1012.86 1013.13 1013.45 1013.78 1014.08 1014.30 1014.45 1014.51 1014.53 1014.54 1014.57 1014.61 1014.67 1014.71 1014.70 1014.61 1014.45
1006.32 1006.53 1006.52 1006.27 1005.82 1005.27 1004.71 1004.30 1004.14 1004.29 1004.74 1005.44 1006.28 1007.13 1007.89 1008.47 1008.86 1009.06 1009.17 1009.26 1009.42 1009.70 1010.10 1010.59 1011.12 1011.61 1012.02 1012.32 1012.51 1012.64 1012.75 1012.89 1013.09 1013.36 1013.66 1013.97 1014.24 1014.43 1014.55 1014.60 1014.61 1014.62 1014.65 1014.71 1014.78 1014.82 1014.82 1014.75 1014.61
1006.16 1006.25 1006.13 1005.81 1005.35 1004.83 1004.37 1004.09 1004.06 1004.33 1004.89 1005.65 1006.50 1007.35 1008.08 1008.63 1009.00 1009.21 1009.34 1009.48 1009.68 1009.99 1010.41 1010.90 1011.41 1011.86 1012.22 1012.46 1012.62 1012.72 1012.81 1012.95 1013.15 1013.42 1013.72 1014.02 1014.27 1014.45 1014.56 1014.61 1014.62 1014.64 1014.69 1014.76 1014.84 1014.91 1014.92 1014.88 1014.77
1005.88 1005.84 1005.63 1005.28 1004.83 1004.40 1004.07 1003.94 1004.07 1004.47 1005.11 1005.91 1006.76 1007.58 1008.26 1008.78 1009.13 1009.36 1009.53 1009.71 1009.97 1010.32 1010.76 1011.24 1011.70 1012.09 1012.37 1012.55 1012.64 1012.70 1012.77 1012.89 1013.09 1013.36 1013.66 1013.96 1014.22 1014.41 1014.52 1014.57 1014.60 1014.64 1014.70 1014.79 1014.90 1014.99 1015.04 1015.02 1014.95
1005.56 1005.40 1005.12 1004.74 1004.35 1004.02 1003.83 1003.86 1004.13 1004.64 1005.34 1006.15 1006.98 1007.75 1008.39 1008.87 1009.21 1009.46 1009.67 1009.92 1010.24 1010.63 1011.09 1011.55 1011.97 1012.30 1012.51 1012.61 1012.64 1012.65 1012.68 1012.79 1012.98 1013.25 1013.56 1013.87 1014.14 1014.35 1014.48 1014.55 1014.61 1014.67 1014.75 1014.87 1015.00 1015.12 1015.20 1015.22 1015.19
1005.31 1005.06 1004.70 1004.31 1003.96 1003.72 1003.66 1003.82 1004.20 1004.79 1005.53 1006.33 1007.11 1007.82 1008.40 1008.85 1009.19 1009.46 1009.74 1010.05 1010.43 1010.88 1011.36 1011.82 1012.21 1012.49 1012.64 1012.69 1012.67 1012.63 1012.64 1012.73 1012.91 1013.18 1013.50 1013.82 1014.11 1014.33 1014.49 1014.59 1014.67 1014.76 1014.87 1015.01 1015.17 1015.32 1015.43 1015.49 1015.49
1005.24 1004.88 1004.46 1004.06 1003.73 1003.56 1003.59 1003.83 1004.28 1004.91 1005.63 1006.39 1007.12 1007.76 1008.29 1008.71 1009.06 1009.37 1009.70 1010.09 1010.54 1011.04 1011.55 1012.02 1012.40 1012.66 1012.79 1012.81 1012.76 1012.71 1012.70 1012.78 1012.96 1013.23 1013.54 1013.86 1014.16 1014.39 1014.57 1014.69 1014.80 1014.90 1015.04 1015.21 1015.39 1015.57 1015.72 1015.81 1015.84
1005.38 1004.94 1004.46 1004.02 1003.70 1003.56 1003.62 1003.90 1004.36 1004.97 1005.65 1006.35 1007.01 1007.59 1008.07 1008.48 1008.84 1009.19 1009.58 1010.03 1010.54 1011.08 1011.63 1012.13 1012.52 1012.79 1012.94 1012.97 1012.94 1012.90 1012.90 1012.97 1013.14 1013.39 1013.69 1014.00 1014.29 1014.52 1014.71 1014.84 1014.96 1015.09 1015.24 1015.43 1015.64 1015.84 1016.02 1016.15 1016.21
1005.69 1005.18 1004.65 1004.17 1003.84 1003.69 1003.74 1004.00 1004.43 1004.98 1005.59 1006.22 1006.80 1007.33 1007.79 1008.19 1008.57 1008.96 1009.40 1009.89 1010.45 1011.03 1011.61 1012.14 1012.56 1012.87 1013.06 1013.14 1013.16 1013.16 1013.18 1013.27 1013.43 1013.65 1013.92 1014.20 1014.46 1014.68 1014.85 1014.99 1015.12 1015.26 1015.42 1015.62 1015.85 1016.08 1016.29 1016.45 1016.55
1006.08 1005.53 1004.95 1004.45 1004.09 1003.91 1003.92 1004.12 1004.48 1004.94 1005.47 1006.01 1006.54 1007.02 1007.46 1007.88 1008.29 1008.72 1009.19 1009.72 1010.29 1010.89 1011.49 1012.04 1012.51 1012.87 1013.12 1013.28 1013.37 1013.42 1013.48 1013.58 1013.73 1013.93 1014.16 1014.39 1014.62 1014.81 1014.97 1015.10 1015.23 1015.37 1015.54 1015.75 1015.99 1016.25 1016.48 1016.68 1016.82
1006.43 1005.87 1005.29 1004.78 1004.40 1004.19 1004.14 1004.26 1004.51 1004.87 1005.30 1005.76 1006.23 1006.68 1007.13 1007.57 1008.02 1008.48 1008.98 1009.52 1010.10 1010.69 1011.29 1011.85 1012.35 1012.76 1013.09 1013.33 1013.50 1013.62 1013.73 1013.85 1013.98 1014.15 1014.33 1014.53 1014.71 1014.87 1015.02 1015.14 1015.27 1015.42 1015.59 1015.80 1016.05 1016.31 1016.58 1016.82 1017.00
1006.64 1006.10 1005.56 1005.09 1004.72 1004.48 1004.38 1004.41 1004.55 1004.79 1005.10 1005.48 1005.89 1006.33 1006.79 1007.27 1007.76 1008.26 1008.78 1009.32 1009.88 1010.45 1011.03 1011.58 1012.10 1012.56 1012.95 1013.27 1013.52 1013.71 1013.87 1014.00 1014.13 1014.27 1014.41 1014.57 1014.72 1014.86 1015.00 1015.12 1015.26 1015.40 1015.58 1015.79 1016.03 1016.30 1016.58 1016.85 1017.08
1006.64 1006.19 1005.75 1005.36 1005.04 1004.80 1004.65 1004.59 1004.61 1004.71 1004.90 1005.18 1005.53 1005.96 1006.44 1006.95 1007.49 1008.03 1008.57 1009.11 1009.65 1010.19 1010.73 1011.26 1011.78 1012.27 1012.71 1013.10 1013.42 1013.67 1013.87 1014.03 1014.15 1014.27 1014.39 1014.52 1014.65 1014.79 1014.94 1015.08 1015.22 1015.38 1015.55 1015.75 1015.98 1016.24 1016.52 1016.81 1017.08
1006.44 1006.13 1005.85 1005.60 1005.37 1005.18 1004.99 1004.84 1004.73 1004.68 1004.72 1004.88 1005.15 1005.54 1006.02 1006.57 1007.15 1007.74 1008.31 1008.86 1009.38 1009.89 1010.39 1010.90 1011.42 1011.92 1012.40 1012.84 1013.22 1013.52 1013.76 1013.93 1014.07 1014.18 1014.28 1014.40 1014.54 1014.70 1014.87 1015.04 1015.21 1015.39 1015.56 1015.75 1015.95 1016.18 1016.44 1016.73 1017.01
1006.10 1006.00 1005.93 1005.87 1005.78 1005.65 1005.45 1005.20 1004.94 1004.71 1004.57 1004.57 1004.72 1005.04 1005.50 1006.07 1006.69 1007.32 1007.93 1008.50 1009.02 1009.52 1010.01 1010.51 1011.02 1011.54 1012.05 1012.52 1012.94 1013.29 1013.56 1013.76 1013.90 1014.01 1014.12 1014.25 1014.41 1014.60 1014.81 1015.03 1015.25 1015.44 1015.63 1015.80 1015.97 1016.16 1016.39 1016.64 1016.91
1005.72 1005.87 1006.06 1006.23 1006.30 1006.25 1006.04 1005.69 1005.26 1004.82 1004.46 1004.25 1004.24 1004.44 1004.84 1005.39 1006.03 1006.70 1007.36 1007.96 1008.52 1009.04 1009.54 1010.05 1010.57 1011.11 1011.65 1012.17 1012.63 1013.01 1013.31 1013.52 1013.67 1013.80 1013.92 1014.07 1014.26 1014.50 1014.76 1015.04 1015.30 1015.53 1015.73 1015.89 1016.04 1016.18 1016.35 1016.56 1016.80
1005.39 1005.82 1006.29 1006.70 1006.95 1006.98 1006.75 1006.29 1005.68 1005.00 1004.39 1003.93 1003.70 1003.74 1004.03 1004.52 1005.15 1005.85 1006.55 1007.21 1007.82 1008.39 1008.93 1009.47 1010.04 1010.61 1011.19 1011.75 1012.25 1012.67 1013.00 1013.23 1013.40 1013.53 1013.67 1013.84 1014.07 1014.35 1014.66 1015.00 1015.31 1015.58 1015.80 1015.97 1016.09 1016.21 1016.33 1016.48 1016.67
1005.19 1005.89 1006.63 1007.27 1007.68 1007.77 1007.52 1006.94 1006.13 1005.21 1004.32 1003.59 1003.12 1002.95 1003.08 1003.48 1004.07 1004.77 1005.50 1006.21 1006.88 1007.52 1008.12 1008.73 1009.35 1009.99 1010.62 1011.23 1011.78 1012.24 1012.60 1012.86 1013.04 1013.19 1013.34 1013.53 1013.78 1014.09 1014.45 1014.83 1015.20 1015.52 1015.77 1015.96 1016.09 1016.18 1016.27 1016.37 1016.52
1005.12 1006.07 1007.03 1007.85 1008.38 1008.52 1008.23 1007.54 1006.55 1005.39 1004.24 1003.24 1002.52 1002.13 1002.09 1002.35 1002.87 1003.53 1004.27 1005.01 1005.74 1006.43 1007.11 1007.78 1008.47 1009.18 1009.88 1010.55 1011.15 1011.66 1012.07 1012.36 1012.57 1012.73 1012.89 1013.09 1013.35 1013.68 1014.06 1014.48 1014.90 1015.27 1015.57 1015.79 1015.95 1016.05 1016.13 1016.22 1016.34
1005.17 1006.28 1007.40 1008.33 1008.93 1009.09 1008.76 1007.97 1006.83 1005.49 1004.13 1002.90 1001.96 1001.36 1001.14 1001.26 1001.66 1002.26 1002.96 1003.70 1004.45 1005.18 1005.91 1006.64 1007.39 1008.16 1008.92 1009.66 1010.33 1010.90 1011.36 1011.70 1011.94 1012.12 1012.29 1012.49 1012.75 1013.08 1013.48 1013.93 1014.38 1014.79 1015.15 1015.43 1015.64 1015.78 1015.89 1015.99 1016.10
1005.26 1006.45 1007.62 1008.59 1009.20 1009.34 1008.98 1008.14 1006.92 1005.47 1003.97 1002.61 1001.50 1000.75 1000.37 1000.35 1000.62 1001.12 1001.74 1002.43 1003.14 1003.86 1004.60 1005.35 1006.13 1006.94 1007.76 1008.56 1009.30 1009.94 1010.46 1010.86 1011.15 1011.36 1011.55 1011.75 1012.01 1012.34 1012.74 1013.19 1013.67 1014.13 1014.55 1014.90 1015.17 1015.38 1015.55 1015.69 1015.82
1005.34 1006.50 1007.61 1008.53 1009.09 1009.21 1008.82 1007.98 1006.76 1005.30 1003.80 1002.39 1001.23 1000.39 999.90 999.76 999.91 1000.27 1000.77 1001.35 1001.97 1002.62 1003.30 1004.01 1004.78 1005.59 1006.44 1007.28 1008.08 1008.79 1009.39 1009.86 1010.22 1010.49 1010.71 1010.93 1011.19 1011.51 1011.91 1012.37 1012.86 1013.35 1013.82 1014.24 1014.60 1014.88 1015.12 1015.31 1015.49
1005.36 1006.37 1007.33 1008.12 1008.59 1008.65 1008.28 1007.49 1006.36 1005.02 1003.62 1002.31 1001.20 1000.37 999.84 999.62 999.65 999.87 1000.21 1000.63 1001.09 1001.59 1002.14 1002.75 1003.44 1004.21 1005.03 1005.88 1006.72 1007.50 1008.19 1008.75 1009.20 1009.55 1009.83 1010.10 1010.38 1010.70 1011.09 1011.55 1012.05 1012.57 1013.07 1013.55 1013.97 1014.33 1014.63 1014.89 1015.12
1005.29 1006.07 1006.82 1007.41 1007.75 1007.77 1007.43 1006.76 1005.81 1004.68 1003.50 1002.39 1001.43 1000.70 1000.21 999.95 999.88 999.96 1000.12 1000.34 1000.59 1000.89 1001.25 1001.69 1002.23 1002.89 1003.65 1004.48 1005.33 1006.16 1006.93 1007.59 1008.15 1008.60 1008.97 1009.30 1009.62 1009.97 1010.37 1010.82 1011.32 1011.85 1012.38 1012.89 1013.35 1013.77 1014.12 1014.43 1014.69
Thickness
5827 5830 5831 5827 5811 5802 5806 5827 5840 5838 5839 5846 5847 5840 5827 5819 5808 5795 5823 5833 5828 5819 5811 5803 5800 5797 5793 5790 5788 5785 5783 5781 5780 5778 5777 5776 5774 5773 5771 5771 5770 5769 5769 5768 5767 5766 5765 5764 5763
5831 5835 5831 5820 5801 5788 5804 5833 5835 5837 5843 5849 5846 5838 5827 5821 5828 5824 5826 5829 5827 5818 5809 5802 5797 5795 5791 5788 5786 5783 5781 5779 5777 5775 5774 5773 5771 5770 5769 5768 5767 5767 5766 5765 5765 5764 5763 5762 5761
5830 5835 5821 5814 5804 5797 5811 5835 5838 5843 5850 5845 5837 5836 5827 5820 5828 5826 5828 5830 5826 5817 5808 5800 5795 5792 5789 5786 5784 5781 5779 5777 5775 5773 5771 5770 5768 5767 5766 5765 5764 5763 5763 5763 5762 5762 5761 5760 5759
5828 5828 5821 5810 5807 5823 5831 5838 5845 5841 5843 5845 5837 5825 5827 5834 5832 5830 5831 5831 5824 5816 5807 5799 5794 5790 5788 5785 5782 5780 5777 5775 5773 5771 5770 5768 5766 5764 5763 5762 5761 5761 5760 5760 5760 5759 5759 5758 5757
5828 5817 5806 5805 5814 5832 5846 5849 5847 5837 5835 5838 5834 5818 5816 5832 5836 5833 5830 5828 5821 5814 5807 5798 5792 5789 5786 5783 5780 5778 5775 5773 5771 5769 5767 5765 5764 5762 5761 5760 5759 5758 5758 5757 5757 5757 5757 5756 5755
5815 5814 5797 5799 5815 5835 5846 5851 5845 5837 5837 5837 5832 5818 5815 5831 5830 5829 5828 5825 5821 5812 5804 5797 5791 5788 5784 5781 5778 5776 5773 5771 5769 5767 5765 5763 5761 5760 5759 5758 5757 5756 5755 5755 5755 5755 5755 5754 5754
5807 5804 5798 5809 5817 5826 5842 5850 5840 5835 5832 5834 5836 5817 5816 5824 5828 5829 5826 5823 5818 5812 5804 5796 5791 5786 5783 5780 5777 5774 5771 5770 5768 5765 5763 5762 5760 5758 5757 5756 5755 5754 5754 5753 5753 5753 5753 5753 5752
5822 5808 5801 5811 5818 5824 5845 5848 5845 5838 5833 5844 5840 5817 5809 5820 5828 5828 5824 5820 5815 5810 5804 5797 5793 5787 5783 5779 5776 5773 5770 5768 5766 5764 5762 5761 5759 5757 5756 5755 5754 5753 5752 5752 5752 5752 5752 5751 5751
5824 5798 5793 5809 5819 5826 5842 5838 5843 5847 5840 5838 5837 5830 5826 5829 5827 5821 5815 5811 5808 5805 5802 5798 5793 5789 5785 5780 5776 5772 5769 5767 5765 5763 5761 5759 5759 5757 5756 5755 5753 5752 5751 5750 5750 5750 5750 5750 5750
5814 5793 5803 5824 5831 5829 5836 5834 5836 5834 5828 5825 5827 5831 5831 5827 5821 5813 5807 5803 5801 5799 5799 5798 5793 5789 5785 5781 5775 5772 5770 5766 5765 5764 5761 5760 5759 5758 5757 5754 5752 5751 5750 5749 5748 5748 5748 5748 5749
5814 5804 5817 5829 5836 5835 5831 5831 5836 5826 5815 5820 5820 5823 5824 5822 5817 5812 5807 5804 5802 5800 5798 5796 5792 5788 5784 5780 5776 5773 5771 5767 5765 5764 5762 5760 5759 5758 5755 5753 5750 5749 5748 5748 5748 5747 5747 5747 5748
5812 5816 5824 5827 5834 5830 5827 5829 5828 5825 5822 5832 5830 5826 5821 5818 5815 5811 5807 5804 5802 5798 5795 5794 5791 5786 5783 5780 5776 5773 5771 5767 5765 5763 5761 5760 5758 5757 5755 5753 5751 5749 5748 5747 5747 5745 5746 5746 5745
5810 5816 5825 5830 5832 5829 5827 5824 5823 5824 5833 5835 5829 5823 5819 5818 5817 5814 5812 5808 5802 5796 5795 5792 5789 5784 5781 5778 5775 5773 5770 5767 5765 5762 5760 5759 5757 5756 5755 5752 5750 5749 5747 5746 5744 5743 5744 5743 5742
5814 5818 5823 5827 5827 5827 5820 5821 5822 5824 5833 5829 5824 5818 5818 5817 5816 5812 5808 5804 5800 5796 5793 5791 5787 5783 5780 5776 5773 5771 5769 5766 5764 5761 5759 5757 5756 5754 5753 5750 5748 5746 5745 5743 5742 5741 5741 5741 5740
5816 5807 5811 5819 5823 5825 5819 5808 5818 5829 5830 5823 5821 5818 5817 5814 5813 5809 5806 5803 5800 5796 5793 5789 5786 5782 5778 5774 5772 5770 5767 5765 5762 5760 5757 5756 5754 5752 5750 5748 5745 5744 5743 5741 5739 5738 5738 5738 5737
5802 5794 5788 5811 5821 5823 5809 5793 5818 5830 5824 5817 5817 5816 5813 5810 5811 5811 5808 5804 5800 5795 5790 5787 5786 5780 5775 5772 5769 5768 5765 5763 5761 5758 5756 5754 5752 5750 5747 5746 5744 5742 5741 5739 5737 5735 5734 5734 5734
5784 5777 5784 5802 5822 5820 5808 5799 5817 5827 5821 5813 5812 5811 5809 5807 5807 5808 5807 5803 5800 5794 5788 5784 5781 5777 5773 5770 5767 5765 5762 5760 5759 5756 5754 5752 5750 5747 5745 5743 5742 5740 5738 5736 5734 5731 5731 5729 5729
5773 5782 5787 5795 5814 5814 5805 5806 5815 5823 5819 5812 5810 5808 5805 5801 5801 5805 5804 5802 5798 5792 5787 5782 5778 5774 5770 5767 5764 5761 5759 5757 5756 5753 5751 5749 5746 5744 5742 5740 5738 5737 5735 5732 5730 5727 5727 5726 5726
5786 5783 5784 5797 5816 5807 5801 5803 5810 5815 5813 5810 5806 5804 5801 5798 5802 5804 5802 5800 5795 5788 5783 5779 5774 5771 5767 5763 5758 5755 5752 5752 5751 5750 5748 5745 5743 5741 5739 5737 5735 5733 5731 5729 5727 5724 5722 5721 5722
5785 5779 5782 5794 5808 5802 5795 5799 5810 5813 5810 5809 5805 5800 5798 5797 5795 5796 5797 5795 5789 5784 5780 5776 5772 5769 5765 5762 5758 5754 5752 5750 5749 5747 5744 5741 5739 5737 5736 5732 5731 5729 5727 5725 5723 5720 5718 5718 5719
5781 5779 5780 5780 5795 5800 5790 5785 5797 5805 5808 5808 5805 5802 5799 5794 5789 5791 5790 5788 5786 5781 5778 5775 5770 5767 5764 5760 5756 5752 5749 5746 5744 5741 5739 5738 5736 5734 5732 5729 5727 5726 5724 5722 5720 5718 5715 5712 5714
5771 5789 5787 5782 5774 5773 5780 5762 5781 5790 5793 5797 5798 5797 5794 5793 5789 5786 5783 5783 5783 5780 5777 5773 5768 5764 5761 5758 5753 5748 5743 5740 5740 5738 5737 5735 5733 5731 5729 5727 5724 5723 5721 5719 5717 5716 5714 5712 5709
5780 5792 5786 5781 5773 5766 5773 5763 5769 5785 5780 5786 5792 5793 5792 5791 5786 5781 5780 5779 5780 5779 5775 5770 5765 5760 5757 5754 5750 5746 5743 5740 5738 5736 5733 5731 5730 5728 5726 5724 5721 5719 5718 5716 5714 5713 5712 5711 5708
5789 5783 5779 5776 5768 5746 5760 5755 5754 5776 5777 5782 5787 5789 5789 5787 5784 5780 5779 5776 5775 5775 5771 5766 5760 5756 5753 5750 5746 5742 5740 5737 5733 5731 5728 5727 5726 5724 5723 5721 5718 5716 5715 5713 5712 5711 5709 5708 5707
5777 5759 5739 5733 5736 5740 5762 5753 5756 5779 5788 5786 5784 5782 5783 5783 5781 5777 5774 5772 5769 5767 5765 5761 5756 5751 5748 5745 5742 5739 5736 5733 5730 5728 5726 5723 5722 5720 5719 5718 5716 5714 5713 5712 5710 5708 5707 5706 5704
5767 5760 5733 5720 5727 5743 5759 5749 5764 5786 5791 5791 5786 5781 5780 5778 5778 5775 5772 5767 5763 5761 5759 5755 5751 5747 5744 5741 5738 5735 5733 5730 5728 5726 5725 5722 5720 5719 5718 5716 5714 5713 5711 5710 5708 5706 5705 5704 5702
5761 5761 5765 5745 5740 5734 5746 5757 5767 5780 5776 5778 5776 5773 5771 5769 5771 5770 5766 5763 5760 5757 5753 5750 5745 5741 5739 5737 5734 5731 5729 5726 5724 5723 5722 5720 5718 5717 5715 5713 5711 5710 5709 5707 5705 5703 5702 5701 5700
5772 5765 5752 5737 5721 5719 5737 5743 5743 5755 5763 5766 5767 5765 5764 5766 5764 5763 5760 5757 5755 5752 5748 5744 5739 5736 5734 5732 5729 5727 5724 5722 5720 5719 5717 5716 5714 5713 5712 5710 5709 5708 5707 5705 5702 5701 5700 5698 5697
5757 5752 5748 5744 5740 5720 5717 5728 5752 5753 5760 5760 5761 5762 5762 5761 5758 5755 5753 5752 5749 5746 5742 5737 5733 5729 5727 5726 5723 5721 5719 5717 5716 5714 5713 5712 5710 5709 5708 5707 5706 5705 5703 5702 5699 5697 5697 5695 5693
5755 5750 5744 5724 5721 5726 5718 5724 5757 5755 5757 5757 5756 5758 5758 5756 5754 5751 5747 5743 5740 5737 5733 5729 5726 5724 5722 5720 5717 5715 5714 5713 5711 5710 5709 5708 5706 5705 5704 5704 5703 5702 5700 5698 5696 5694 5693 5691 5688